User: anonymous   Login
Location: Austin, TX
(30.3000°N, 97.7500°W)
Time: 14:11:56
(UTC-05:00)
Language:

Cosmos 2082 Rocket - Orbit

View from above orbital plane
View from above orbital plane
View from above satellite
View from above satellite

Ground track
Ground track

The orbit data is extracted from the following two-line orbital elements,

1 20625U 90046B   17178.88547941 +.00000243 +00000-0 +15079-3 0  9998
2 20625 070.9993 126.6854 0012222 091.3637 268.8885 14.14618707399098
Epoch (UTC): 27 June 2017 21:15:05
Eccentricity: 0.0012222
inclination: 70.9993°
perigee height: 835 km
apogee height: 852 km
right ascension of ascending node: 126.6854°
argument of perigee: 91.3637°
revolutions per day: 14.14618707
mean anomaly at epoch: 268.8885°
orbit number at epoch: 39909

The dashed part of the orbit path shows where the satellite is in the earth's shadow,  

DLR